Flag for Guadeloupe Weather past 2 weeks in Basse-Terre, Guadeloupe

Now
81 °F

Thunderstorms. Scattered clouds.


Feels Like: 86 °F
Forecast: 78 / 83 °F
Wind: 10 mph from Southeast

Location: Le Raizet - Guadeloupe

Current Time: Sep 20, 2014 at 2:56:24 PM

Latest Report: Sep 20, 2014 at 2:30 PM


Visibility: 5 mi

Pressure: 29.92 "Hg

Humidity: 84%

Dew point: 75 °F

Location of Basse-TerreLocation

Historic Weather in Basse-Terre — Graph

°F

Basse-Terre temperature yesterday

Maximum temperature yesterday: 86 °F (at 2:00 PM)
Minimum temperature yesterday: 73 °F (at 10:30 AM)
Average temperature yesterday: 79 °F

Past Weeks' High & Low Weather Summary

 TemperatureHumidityPressure
High90 °F (Sep 11, 1:00 PM)100% (Sep 20, 1:00 AM)30.07 "Hg (Sep 20, 1:00 AM)
Low73 °F (Sep 6, 3:00 AM)49% (Sep 9, 12:30 PM)29.86 "Hg (Sep 17, 3:36 PM)
Average81 °F78%29.96 "Hg
* Reported Sep 5 9:00 AM — Sep 20 9:30 AM, Basse-Terre, Weather by CustomWeather, © 2014

Note: Actual official high and low records may vary slightly from our data, if they occured in-between our weather recording intervals... More about our weather records

Advertising

Basse-Terre weather history for previous 24 hours

 ConditionsComfort  
Time TempWeatherWind HumidityBarometerVisibility
9:30 AM
Sep 20
88 °FScattered clouds.10 mph62%29.98 "HgN/A
9:00 AM86 °FBroken clouds.9 mph70%29.98 "HgN/A
8:30 AM84 °FBroken clouds.6 mph74%29.98 "HgN/A
8:00 AM84 °FBroken clouds.7 mph70%29.95 "HgN/A
7:30 AM82 °FBroken clouds.7 mph79%29.95 "HgN/A
7:00 AM79 °FPartly sunny.No wind94%29.95 "HgN/A
6:30 AM77 °FWarm.No wind94%29.92 "HgN/A
6:00 AM75 °FMore clouds than sun.No wind94%29.92 "HgN/A
5:30 AM75 °FClear.1 mph94%29.92 "HgN/A
5:00 AM75 °FClear.2 mph94%29.92 "HgN/A
4:30 AM73 °FClear.1 mph100%29.92 "HgN/A
4:00 AM73 °FClear.2 mph94%29.89 "HgN/A
3:30 AM73 °FPassing clouds.No wind94%29.89 "HgN/A
3:00 AM73 °FPassing clouds.2 mph94%29.92 "HgN/A
2:30 AM73 °FPartly cloudy.No wind94%29.92 "HgN/A
2:00 AM73 °FPassing clouds.1 mph94%29.92 "HgN/A
1:30 AM73 °FClear.No wind94%29.92 "HgN/A
1:00 AM73 °FClear.1 mph100%29.92 "HgN/A
12:30 AM73 °FClear.No wind94%29.95 "HgN/A
12:00 AM73 °FClear.1 mph94%29.95 "HgN/A
11:30 PM
Sep 19
73 °FClear.2 mph94%29.95 "HgN/A
11:00 PM75 °FClear.1 mph89%29.98 "HgN/A
10:30 PM75 °FClear.No wind94%29.98 "HgN/A
10:00 PM75 °FClear.No wind94%29.98 "HgN/A
9:00 PM75 °FClear.2 mph94%29.98 "HgN/A
8:30 PM75 °FClear.5 mph94%29.98 "HgN/A
6:30 PM77 °FThunderstorms. Partly cloudy.3 mph83%29.95 "HgN/A
6:00 PM79 °FThunderstorms. Broken clouds.9 mph79%29.98 "HgN/A
5:30 PM79 °FSprinkles. Broken clouds.15 mph74%29.95 "HgN/A
5:00 PM84 °FBroken clouds.14 mph66%29.95 "HgN/A
4:30 PM84 °FBroken clouds.8 mph66%29.92 "HgN/A
4:00 PM86 °FBroken clouds.12 mph62%29.92 "HgN/A
3:30 PM86 °FBroken clouds.12 mph62%29.92 "HgN/A
3:06 PM86 °FBroken clouds.12 mph62%29.92 "HgN/A
2:47 PM86 °FBroken clouds.10 mph62%29.92 "HgN/A
2:00 PM86 °FBroken clouds.10 mph62%29.92 "HgN/A
Weather by CustomWeather, © 2014

See weather overviewHow to use our weather pages